Weather History for GEML - January, 2013

Change the Weather History Date:

Thursday, January 10, 2013

  Actual Average Record
Temperature  
Mean Temperature 60 °F -  
Max Temperature 68 °F 62 °F 71 °F (2001)
Min Temperature 53 °F 50 °F 42 °F (2003)
Degree Days  
Heating Degree Days 4    
Growing Degree Days 10 (Base 50)    
Moisture  
Dew Point 48 °F    
Average Humidity 62    
Maximum Humidity 82    
Minimum Humidity 38    
Precipitation  
Precipitation 0.00 in 0.07 in - ()
Sea Level Pressure  
Sea Level Pressure 30.26 in    
Wind  
Wind Speed 3 mph ()    
Max Wind Speed 8 mph    
Max Gust Speed -    
Visibility 19.0 miles    
Events      
Averages and records for this station are not official NWS values.
T = Trace of Precipitation, MM = Missing Value Source: Averaged Metar Reports

Daily Weather History Graph

Daily Weather History Graph

Search for Another Location

Airport or City:

Trip Planner

Search our weather history database for the weather conditions in past years. The results will help you decide how hot, cold, wet, or windy it might be!

Date:

Astronomy

Jan. 10, 2013 Rise Set
Actual Time 8:20 AM CET 6:18 PM CET
Civil Twilight 7:53 AM CET 6:46 PM CET
Nautical Twilight 7:21 AM CET 7:17 PM CET
Astronomical Twilight 6:50 AM CET 7:48 PM CET
Moon 6:46 AM CET (1/10) 5:09 PM CET (1/10)
Length of Visible Light 10h 52m
Length of Day
9h 57m
Waning Crescent, 3% of the Moon is Illuminated
Jan 10
Waning Crescent
Jan 11
New
Jan 19
First Quarter
Jan 27
Full
Feb 3
Last Quarter

Hourly Weather History & Observations

Time (CET) Temp. Dew Point Humidity Pressure Visibility Wind Dir Wind Speed Gust Speed Precip Events Conditions
6:30 AM 55.4 °F 48.2 °F 77% 30.27 in - Variable 2.3 mph - N/A   Clear
7:00 AM 57 °F 47 °F 62% 30.29 in 19 mi WSW 2.3 mph - -  
7:00 AM 55.4 °F 46.4 °F 72% 30.27 in - Variable 2.3 mph - N/A   Clear
7:30 AM 57.2 °F 48.2 °F 72% 30.27 in - WSW 3.5 mph - N/A   Clear
8:00 AM 55.4 °F 46.4 °F 72% 30.30 in - Variable 1.2 mph - N/A   Clear
8:30 AM 53.6 °F 44.6 °F 72% 30.30 in - East 1.2 mph - N/A   Clear
9:00 AM 53.6 °F 46.4 °F 77% 30.30 in - Variable 1.2 mph - N/A   Clear
9:30 AM 53.6 °F 48.2 °F 82% 30.30 in - NW 4.6 mph - N/A   Clear
10:00 AM 60.8 °F 48.2 °F 63% 30.30 in - SW 4.6 mph - N/A   Clear
10:30 AM 62.6 °F 48.2 °F 59% 30.30 in - Variable 2.3 mph - N/A   Clear
11:00 AM 62.6 °F 50.0 °F 63% 30.30 in - Calm Calm - N/A   Clear
11:30 AM 64.4 °F 46.4 °F 52% 30.30 in - West 6.9 mph - N/A   Clear
12:00 PM 66.2 °F 46.4 °F 49% 30.30 in - WSW 4.6 mph - N/A   Clear
12:30 PM 66.2 °F 48.2 °F 52% 30.30 in - WNW 5.8 mph - N/A   Clear
1:00 PM 67 °F 47 °F 38% 30.28 in 19 mi West 4.6 mph - -   Clear
1:00 PM 66.2 °F 48.2 °F 52% 30.27 in - West 4.6 mph - N/A   Clear
1:30 PM 66.2 °F 48.2 °F 52% 30.27 in - West 3.5 mph - N/A   Clear
2:00 PM 68.0 °F 46.4 °F 46% 30.24 in - West 4.6 mph - N/A   Clear
2:30 PM 68.0 °F 48.2 °F 49% 30.24 in - West 1.2 mph - N/A   Clear
3:00 PM 66.2 °F 48.2 °F 52% 30.21 in - Variable 2.3 mph - N/A   Clear
3:30 PM 66.2 °F 48.2 °F 52% 30.21 in - NW 5.8 mph - N/A   Clear
4:30 PM 64.4 °F 50.0 °F 59% 30.21 in - West 3.5 mph - N/A   Clear
5:00 PM 62.6 °F 50.0 °F 63% 30.21 in - WNW 6.9 mph - N/A   Clear
5:30 PM 62.6 °F 50.0 °F 63% 30.21 in - WSW 8.1 mph - N/A   Clear
6:00 PM 62.6 °F 50.0 °F 63% 30.21 in - West 5.8 mph - N/A   Clear
6:30 PM 60.8 °F 51.8 °F 72% 30.21 in - West 5.8 mph - N/A   Clear
7:00 PM 59 °F 50 °F 65% 30.22 in 19 mi West 4.6 mph - -   Clear
7:00 PM 59.0 °F 51.8 °F 77% 30.21 in - WSW 4.6 mph - N/A   Clear
7:30 PM 59.0 °F 51.8 °F 77% 30.21 in - WSW 6.9 mph - N/A   Clear